"Timestamp","TZ","WindDir_Mean (deg)","WindSpd_Mean (km/h)","WindSpd_Min (km/h)","WindSpd_Max (km/h)","Temp_Mean (deg)","RH_Mean (%)","MSLP_Mean (hPa)","Rain_Acc (mm)","Rain_Intensity (mm/h)","Hail_Acc (hits/cm2)","Hail_Intensity (hits/cm2hr)","Solar_Mean (W/m2)"
2022/03/15 00:00:00.012,n,241,3.6,3.24,3.96,20.4,68.6,1018.32,0,0,0,0,0.031319
2022/03/15 00:01:00.000,n,204,4.32,3.96,4.32,20.5,68.5,1018.32,0,0,0,0,0.025253
2022/03/15 00:02:00.000,n,242,5.04,3.96,6.12,20.5,68.5,1018.32,0,0,0,0,0.025253
2022/03/15 00:03:00.003,n,279,2.16,1.8,2.52,20.4,68.6,1018.32,0,0,0,0,0.025253
2022/03/15 00:04:00.000,n,325,4.32,1.44,6.12,20.4,68.6,1018.22,0,0,0,0,0.026131
2022/03/15 00:05:00.000,n,186,3.24,2.52,4.32,20.4,68.5,1018.22,0,0,0,0,0.02697
2022/03/15 00:06:00.000,n,240,1.08,0.36,1.44,20.4,68.9,1018.22,0,0,0,0,0.025253
2022/03/15 00:07:00.009,n,180,3.24,2.52,6.84,20.4,68.6,1018.22,0,0,0,0,0.029602
2022/03/15 00:08:00.007,n,70,1.08,0.72,1.44,20.4,68.5,1018.22,0,0,0,0,0.025253
2022/03/15 00:09:00.004,n,167,11.52,8.28,14.04,20.4,68.3,1018.22,0,0,0,0,0.027885
2022/03/15 00:10:00.001,n,172,8.28,5.04,10.8,20.4,67.8,1018.22,0,0,0,0,0.022621
2022/03/15 00:11:00.000,n,149,5.04,4.32,5.76,20.4,68,1018.22,0,0,0,0,0.02697
2022/03/15 00:12:00.000,n,163,7.92,5.4,10.08,20.4,67.7,1018.22,0,0,0,0,0.021744
2022/03/15 00:13:00.000,n,227,5.04,4.68,5.4,20.4,67.7,1018.12,0,0,0,0,0.023537
2022/03/15 00:14:00.007,n,298,2.16,1.8,2.52,20.4,68.4,1018.12,0,0,0,0,0.02697
2022/03/15 00:15:00.004,n,273,5.4,5.04,5.76,20.4,68.5,1018.12,0,0,0,0,0.02697
2022/03/15 00:16:00.002,n,249,2.16,1.44,3.24,20.4,68.5,1018.12,0,0,0,0,0.025253
2022/03/15 00:17:00.000,n,192,3.6,3.6,3.96,20.4,68.5,1018.12,0,0,0,0,0.022621
2022/03/15 00:18:00.014,n,145,1.8,0.72,2.52,20.3,68.4,1018.12,0,0,0,0,0.021744
2022/03/15 00:19:00.000,n,164,0.72,0,1.08,20.3,68.4,1018.12,0,0,0,0,0.023537
2022/03/15 00:20:00.000,n,281,3.24,2.16,3.96,20.3,68.6,1018.12,0,0,0,0,0.021744
2022/03/15 00:21:00.000,n,264,1.08,0.36,2.16,20.3,68.8,1018.02,0,0,0,0,0.022621
2022/03/15 00:22:00.005,n,270,2.16,1.8,2.16,20.3,68.7,1018.02,0,0,0,0,0.024376
2022/03/15 00:23:00.002,n,153,2.52,1.08,4.32,20.2,68.6,1018.02,0,0,0,0,0.020905
2022/03/15 00:24:00.000,n,154,2.88,0.72,8.28,20.2,68.6,1018.12,0,0,0,0,0.022621
2022/03/15 00:25:00.000,n,230,1.8,1.44,3.24,20.2,68.8,1018.02,0,0,0,0,0.01915
2022/03/15 00:26:00.010,n,278,2.88,2.52,3.24,20.2,69,1018.02,0,0,0,0,0.020027
2022/03/15 00:27:00.007,n,262,2.88,2.52,3.6,20.2,69,1018.02,0,0,0,0,0.020905
2022/03/15 00:28:00.000,n,247,4.32,3.6,5.04,20.2,68.8,1018.02,0,0,0,0,0.020905
2022/03/15 00:29:00.001,n,262,2.88,1.8,3.24,20.1,69.1,1018.02,0,0,0,0,0.022621
2022/03/15 00:30:00.000,n,47,1.44,1.08,1.8,20.1,69,1018.02,0,0,0,0,0.01915
2022/03/15 00:31:00.000,n,262,3.96,3.6,3.96,20.1,69.2,1018.02,0,0,0,0,0.020905
2022/03/15 00:32:00.009,n,215,2.16,1.44,2.52,20.1,69.4,1018.02,0,0,0,0,0.01915
2022/03/15 00:33:00.007,n,210,0.36,0.36,0.72,20.1,69.5,1018.02,0,0,0,0,0.01915
2022/03/15 00:34:00.004,n,275,4.32,3.6,5.04,20.1,69.4,1018.02,0,0,0,0,0.017395
2022/03/15 00:35:00.001,n,272,1.44,1.08,1.8,20.1,69.4,1018.02,0,0,0,0,0.015678
2022/03/15 00:36:00.015,n,291,0.72,0.36,0.72,20.1,69.5,1017.92,0,0,0,0,0.01915
2022/03/15 00:37:00.000,n,7,1.44,0.72,2.16,20.1,69.6,1017.92,0,0,0,0,0.01915
2022/03/15 00:38:00.000,n,184,1.8,1.44,2.16,20.1,69.4,1017.92,0,0,0,0,0.01915
2022/03/15 00:39:00.000,n,187,0.72,0.36,0.72,20.1,69.4,1017.92,0,0,0,0,0.015678
2022/03/15 00:40:00.005,n,134,4.32,1.8,6.48,20,68.8,1017.92,0,0,0,0,0.022621
2022/03/15 00:41:00.003,n,318,0.72,0.36,1.44,20,69.1,1017.82,0,0,0,0,0.018311
2022/03/15 00:42:00.000,n,279,3.6,3.24,4.32,20,69.1,1017.82,0,0,0,0,0.016518
2022/03/15 00:43:00.000,n,257,2.88,2.52,3.24,20.1,69.3,1017.82,0,0,0,0,0.016518
2022/03/15 00:44:00.010,n,252,3.96,1.8,5.04,20.1,69.4,1017.82,0,0,0,0,0.016518
2022/03/15 00:45:00.008,n,270,4.32,3.6,4.68,20,69.5,1017.82,0,0,0,0,0.015678
2022/03/15 00:46:00.000,n,253,3.96,3.24,5.04,20,69.6,1017.82,0,0,0,0,0.014801
2022/03/15 00:47:00.001,n,279,1.8,1.44,2.16,20,69.7,1017.82,0,0,0,0,0.014801
2022/03/15 00:48:00.000,n,248,0.36,0,0.72,20,69.8,1017.82,0,0,0,0,0.013924
2022/03/15 00:49:00.000,n,257,1.44,1.08,2.16,20,70,1017.82,0,0,0,0,0.018311
2022/03/15 00:50:00.000,n,170,1.8,1.44,2.52,19.9,69.9,1017.82,0,0,0,0,0.018311
2022/03/15 00:51:00.000,n,235,2.16,1.8,2.16,19.9,70,1017.82,0,0,0,0,0.020905
2022/03/15 00:52:00.009,n,213,1.44,1.08,1.8,19.9,69.8,1017.82,0,0,0,0,0.01915
2022/03/15 00:53:00.006,n,273,5.4,5.04,5.76,19.9,70.3,1017.82,0,0,0,0,0.017395
2022/03/15 00:54:00.004,n,260,3.96,3.6,4.68,19.9,70.5,1017.72,0,0,0,0,0.020027
2022/03/15 00:55:00.001,n,279,5.04,4.32,6.12,19.9,72.2,1017.72,0,0,0,0,0.021744
2022/03/15 00:56:00.000,n,242,2.52,2.16,2.88,19.9,71.3,1017.72,0,0,0,0,0.018311
2022/03/15 00:57:00.000,n,267,6.48,4.68,7.2,19.9,71.2,1017.72,0,0,0,0,0.024338
2022/03/15 00:58:00.005,n,254,3.24,2.52,3.6,19.9,71.3,1017.72,0,0,0,0,0.032196
2022/03/15 00:59:00.004,n,272,3.24,2.88,3.6,19.8,71.4,1017.72,0,0,0,0,0.028687
2022/03/15 01:00:00.001,n,257,5.04,4.32,5.4,19.8,71.3,1017.72,0,0,0,0,0.02697
2022/03/15 01:01:00.000,n,259,4.68,4.32,5.4,19.8,71.4,1017.72,0,0,0,0,0.028687
2022/03/15 01:02:00.011,n,259,5.76,5.04,6.12,19.7,71.4,1017.72,0,0,0,0,0.028687
2022/03/15 01:03:00.007,n,260,7.2,6.48,7.56,19.7,71.4,1017.72,0,0,0,0,0.031319
2022/03/15 01:04:00.000,n,262,3.24,2.88,3.6,19.7,71.4,1017.62,0,0,0,0,0.031319
2022/03/15 01:05:00.001,n,292,3.96,2.52,5.4,19.6,71.6,1017.62,0,0,0,0,0.027847
2022/03/15 01:06:00.000,n,248,5.4,5.04,6.12,19.6,71.6,1017.62,0,0,0,0,0.02697
2022/03/15 01:07:00.000,n,304,0.72,0.36,1.08,19.6,71.7,1017.62,0,0,0,0,0.029564
2022/03/15 01:08:00.000,n,254,3.96,2.88,5.76,19.6,71.7,1017.62,0,0,0,0,0.02697
2022/03/15 01:09:00.007,n,276,4.32,3.96,5.04,19.6,71.8,1017.62,0,0,0,0,0.025253
2022/03/15 01:10:00.004,n,255,4.68,4.32,5.76,19.5,71.9,1017.62,0,0,0,0,0.024338
2022/03/15 01:11:00.001,n,286,4.68,4.68,5.76,19.5,71.9,1017.52,0,0,0,0,0.029564
2022/03/15 01:12:00.015,n,265,6.84,6.12,7.56,19.5,71.9,1017.52,0,0,0,0,0.02346
2022/03/15 01:13:00.000,n,277,2.16,1.8,2.52,19.5,72,1017.52,0,0,0,0,0.025253
2022/03/15 01:14:00.000,n,226,2.88,1.8,4.32,19.4,72,1017.52,0,0,0,0,0.020027
2022/03/15 01:15:00.000,n,191,0.36,0.36,0.72,19.4,72.1,1017.62,0,0,0,0,0.02346
2022/03/15 01:16:00.005,n,279,1.08,0.36,1.8,19.4,72.1,1017.52,0,0,0,0,0.021744
2022/03/15 01:17:00.002,n,273,2.88,2.52,3.24,19.4,72.2,1017.52,0,0,0,0,0.021744
2022/03/15 01:18:00.000,n,255,1.44,1.08,1.8,19.4,73.1,1017.52,0,0,0,0,0.02346
2022/03/15 01:19:00.013,n,267,2.16,1.8,2.52,19.4,72.8,1017.52,0,0,0,0,0.020866
2022/03/15 01:20:00.011,n,268,3.96,2.88,5.04,19.4,72.5,1017.52,0,0,0,0,0.021744
2022/03/15 01:21:00.008,n,289,2.52,1.8,2.88,19.4,72.4,1017.52,0,0,0,0,0.020027
2022/03/15 01:22:00.000,n,170,0.72,0.36,1.08,19.4,72.4,1017.42,0,0,0,0,0.022621
2022/03/15 01:23:00.000,n,245,1.8,1.8,2.52,19.4,72.4,1017.52,0,0,0,0,0.018272
2022/03/15 01:24:00.000,n,280,3.96,3.6,4.68,19.4,72.4,1017.42,0,0,0,0,0.018272
2022/03/15 01:25:00.000,n,275,5.76,5.04,6.12,19.3,72.4,1017.42,0,0,0,0,0.019112
2022/03/15 01:26:00.000,n,258,7.92,7.56,8.64,19.3,72.5,1017.42,0,0,0,0,0.020027
2022/03/15 01:27:00.008,n,276,3.96,3.24,4.32,19.3,72.5,1017.42,0,0,0,0,0.018272
2022/03/15 01:28:00.005,n,337,1.08,0.36,1.44,19.3,72.5,1017.42,0,0,0,0,0.016518
2022/03/15 01:29:00.003,n,323,2.16,1.08,3.24,19.3,72.8,1017.42,0,0,0,0,0.019112
2022/03/15 01:30:00.000,n,262,5.04,5.04,5.4,19.3,72.5,1017.42,0,0,0,0,0.02697
2022/03/15 01:31:00.000,n,272,4.32,3.6,5.04,19.3,72.5,1017.42,0,0,0,0,0.02697
2022/03/15 01:32:00.000,n,251,2.52,1.8,3.24,19.3,72.5,1017.42,0,0,0,0,0.026093
2022/03/15 01:33:00.000,n,280,3.24,2.88,3.6,19.3,72.5,1017.42,0,0,0,0,0.024376
2022/03/15 01:34:00.005,n,259,6.12,5.76,6.48,19.3,72.6,1017.32,0,0,0,0,0.027847
2022/03/15 01:35:00.002,n,257,2.88,1.44,4.68,19.3,72.4,1017.32,0,0,0,0,0.025253
2022/03/15 01:36:00.000,n,260,3.96,3.24,4.32,19.3,72.3,1017.32,0,0,0,0,0.025253
2022/03/15 01:37:00.000,n,259,5.04,3.6,6.12,19.3,72.3,1017.32,0,0,0,0,0.025253
2022/03/15 01:38:00.011,n,275,4.32,3.24,5.4,19.3,72.3,1017.32,0,0,0,0,0.025253
2022/03/15 01:39:00.008,n,251,5.4,3.96,6.84,19.3,72.2,1017.32,0,0,0,0,0.026093
2022/03/15 01:40:00.000,n,268,5.04,4.68,5.76,19.3,72.2,1017.32,0,0,0,0,0.02346
2022/03/15 01:41:00.001,n,260,7.2,7.2,7.56,19.3,72.1,1017.32,0,0,0,0,0.02697
2022/03/15 01:42:00.000,n,313,2.88,1.44,6.12,19.3,72.1,1017.32,0,0,0,0,0.025253
2022/03/15 01:43:00.000,n,258,5.04,4.68,5.76,19.3,72.1,1017.32,0,0,0,0,0.024376
2022/03/15 01:44:00.000,n,245,2.88,2.16,3.24,19.3,72,1017.32,0,0,0,0,0.026093
2022/03/15 01:45:00.008,n,207,0.72,0.36,1.08,19.3,72,1017.32,0,0,0,0,0.021744
2022/03/15 01:46:00.005,n,235,2.16,1.08,2.52,19.2,72,1017.32,0,0,0,0,0.020027
2022/03/15 01:47:00.003,n,304,3.6,2.52,4.68,19.2,72,1017.22,0,0,0,0,0.02346
2022/03/15 01:48:00.000,n,246,2.52,1.8,2.88,19.2,71.9,1017.22,0,0,0,0,0.01915
2022/03/15 01:49:00.000,n,245,4.32,3.96,4.68,19.2,71.9,1017.22,0,0,0,0,0.022621
2022/03/15 01:50:00.000,n,291,2.88,2.52,3.6,19.2,71.9,1017.22,0,0,0,0,0.020027
2022/03/15 01:51:00.000,n,223,3.24,2.88,3.24,19.2,71.9,1017.22,0,0,0,0,0.020027
2022/03/15 01:52:00.005,n,293,2.88,2.52,3.24,19.2,71.8,1017.32,0,0,0,0,0.02346
2022/03/15 01:53:00.002,n,245,2.88,2.88,2.88,19.2,71.9,1017.22,0,0,0,0,0.020866
2022/03/15 01:54:00.000,n,249,3.24,2.52,3.6,19.2,71.9,1017.22,0,0,0,0,0.020866
2022/03/15 01:55:00.000,n,259,6.12,2.52,6.84,19.2,71.9,1017.22,0,0,0,0,0.021744
2022/03/15 01:56:00.009,n,290,5.04,4.68,5.76,19.2,71.9,1017.22,0,0,0,0,0.018272
2022/03/15 01:57:00.007,n,287,3.24,2.52,3.96,19.2,71.9,1017.22,0,0,0,0,0.018272
2022/03/15 01:58:00.000,n,266,4.68,3.96,5.4,19.2,71.9,1017.22,0,0,0,0,0.018272
2022/03/15 01:59:00.001,n,263,3.24,2.88,3.6,19.2,72.2,1017.22,0,0,0,0,0.015678
2022/03/15 02:00:00.000,n,243,5.04,5.04,5.4,19.2,72,1017.22,0,0,0,0,0.016518
2022/03/15 02:01:00.000,n,275,4.32,3.24,5.04,19.2,72,1017.22,0,0,0,0,0.021744
2022/03/15 02:02:00.008,n,289,4.68,3.96,5.76,19.2,72.4,1017.22,0,0,0,0,0.016518
2022/03/15 02:03:00.006,n,248,4.32,3.24,5.04,19.2,72.1,1017.22,0,0,0,0,0.022621
2022/03/15 02:04:00.000,n,282,4.32,3.24,5.04,19.2,71.9,1017.22,0,0,0,0,0.027809
2022/03/15 02:05:00.013,n,263,4.32,3.6,5.04,19.2,71.9,1017.22,0,0,0,0,0.027809
2022/03/15 02:06:00.011,n,255,5.76,5.04,6.12,19.2,71.9,1017.22,0,0,0,0,0.02697
2022/03/15 02:07:00.000,n,284,2.88,2.16,2.88,19.2,71.9,1017.22,0,0,0,0,0.029602
2022/03/15 02:08:00.000,n,255,6.12,5.04,7.2,19.2,71.8,1017.22,0,0,0,0,0.028687
2022/03/15 02:09:00.003,n,273,3.96,3.6,5.04,19.2,71.9,1017.22,0,0,0,0,0.02697
2022/03/15 02:10:00.000,n,323,2.52,1.44,3.24,19.2,72.1,1017.22,0,0,0,0,0.02697
2022/03/15 02:11:00.000,n,257,2.16,2.16,2.52,19.2,71.8,1017.22,0,0,0,0,0.02697
2022/03/15 02:12:00.010,n,268,1.8,1.08,1.8,19.2,71.6,1017.22,0,0,0,0,0.02697
2022/03/15 02:13:00.007,n,264,1.8,1.08,3.24,19.2,72,1017.22,0,0,0,0,0.02346
2022/03/15 02:14:00.004,n,171,1.08,0.36,1.44,19.2,71.6,1017.22,0,0,0,0,0.026093
2022/03/15 02:15:00.002,n,313,1.08,0.72,1.08,19.2,71.5,1017.22,0,0,0,0,0.026093
2022/03/15 02:16:00.000,n,169,3.96,2.88,10.08,19.2,71.7,1017.22,0,0,0,0,0.024376
2022/03/15 02:17:00.000,n,276,1.08,0.72,1.08,19.2,71.8,1017.22,0,0,0,0,0.025253
2022/03/15 02:18:00.000,n,292,2.16,1.44,3.24,19.2,71.7,1017.12,0,0,0,0,0.02346
2022/03/15 02:19:00.000,n,272,3.96,0.72,4.68,19.2,71.6,1017.12,0,0,0,0,0.021744
2022/03/15 02:20:00.005,n,311,0.72,0,1.08,19.2,71.6,1017.12,0,0,0,0,0.022621
2022/03/15 02:21:00.002,n,269,3.24,2.88,3.24,19.2,71.6,1017.12,0,0,0,0,0.02697
2022/03/15 02:22:00.000,n,247,2.88,2.52,2.88,19.2,71.6,1017.12,0,0,0,0,0.025253
2022/03/15 02:23:00.014,n,282,3.6,2.52,3.96,19.2,71.6,1017.12,0,0,0,0,0.022621
2022/03/15 02:24:00.011,n,257,7.2,5.4,8.28,19.2,71.7,1017.02,0,0,0,0,0.025253
2022/03/15 02:25:00.000,n,307,5.04,4.32,6.12,19.2,71.7,1017.02,0,0,0,0,0.02346
2022/03/15 02:26:00.000,n,240,2.88,2.16,3.24,19.2,71.6,1017.02,0,0,0,0,0.024376
2022/03/15 02:27:00.002,n,238,3.6,3.6,3.96,19.2,71.7,1017.02,0,0,0,0,0.02346
2022/03/15 02:28:00.000,n,265,3.6,3.24,4.32,19.2,71.7,1017.02,0,0,0,0,0.02346
2022/03/15 02:29:00.000,n,227,3.24,2.16,4.68,19.2,71.6,1017.02,0,0,0,0,0.025253
2022/03/15 02:30:00.000,n,256,5.04,4.68,5.76,19.2,71.4,1017.02,0,0,0,0,0.025253
2022/03/15 02:31:00.008,n,259,8.28,6.84,8.64,19.2,71.4,1017.02,0,0,0,0,0.025253
2022/03/15 02:32:00.006,n,271,3.96,3.6,4.32,19.2,71.4,1016.92,0,0,0,0,0.020866
2022/03/15 02:33:00.002,n,226,5.4,5.4,6.12,19.2,71.4,1016.92,0,0,0,0,0.022621
2022/03/15 02:34:00.000,n,257,4.32,3.6,5.4,19.2,71.3,1016.92,0,0,0,0,0.02346
2022/03/15 02:35:00.000,n,259,6.84,4.32,8.28,19.2,71.2,1016.92,0,0,0,0,0.026093
2022/03/15 02:36:00.000,n,254,3.24,2.88,3.6,19.2,71.2,1016.92,0,0,0,0,0.022621
2022/03/15 02:37:00.007,n,265,6.84,6.48,7.56,19.2,71.2,1016.92,0,0,0,0,0.02346
2022/03/15 02:38:00.004,n,248,5.04,3.96,5.76,19.2,71,1016.92,0,0,0,0,0.025253
2022/03/15 02:39:00.001,n,263,6.12,5.76,7.2,19.2,71,1016.92,0,0,0,0,0.022621
2022/03/15 02:40:00.000,n,251,3.6,2.88,4.68,19.2,71,1016.92,0,0,0,0,0.029602
2022/03/15 02:41:00.011,n,274,7.56,6.84,7.92,19.2,71,1016.92,0,0,0,0,0.022621
2022/03/15 02:42:00.009,n,263,3.24,2.88,3.6,19.2,71,1016.82,0,0,0,0,0.020866
2022/03/15 02:43:00.000,n,247,4.32,2.88,5.4,19.2,71,1016.82,0,0,0,0,0.021744
2022/03/15 02:44:00.002,n,282,3.6,1.44,5.04,19.2,71.1,1016.82,0,0,0,0,0.024376
2022/03/15 02:45:00.000,n,257,1.08,0.72,1.8,19.2,71.1,1016.82,0,0,0,0,0.024376
2022/03/15 02:46:00.000,n,259,1.8,1.44,1.8,19.2,71.1,1016.82,0,0,0,0,0.021744
2022/03/15 02:47:00.000,n,283,1.08,1.08,1.44,19.2,71.2,1016.82,0,0,0,0,0.021744
2022/03/15 02:48:00.007,n,242,3.6,2.52,4.32,19.2,71.2,1016.82,0,0,0,0,0.022621
2022/03/15 02:49:00.003,n,267,1.44,1.08,1.44,19.2,71.2,1016.82,0,0,0,0,0.021744
2022/03/15 02:50:00.001,n,269,3.96,2.88,4.68,19.2,71.3,1016.82,0,0,0,0,0.020027
2022/03/15 02:51:00.015,n,282,5.04,4.32,5.4,19.2,71.3,1016.82,0,0,0,0,0.017395
2022/03/15 02:52:00.000,n,252,4.68,4.32,4.68,19.2,71.2,1016.82,0,0,0,0,0.020866
2022/03/15 02:53:00.000,n,260,3.6,2.88,4.32,19.2,71.2,1016.72,0,0,0,0,0.01915
2022/03/15 02:54:00.000,n,256,2.88,2.52,3.24,19.2,71.2,1016.72,0,0,0,0,0.022621
2022/03/15 02:55:00.005,n,252,2.52,1.8,3.24,19.2,71.3,1016.72,0,0,0,0,0.022621
2022/03/15 02:56:00.003,n,295,2.88,2.16,3.6,19.2,71.2,1016.72,0,0,0,0,0.016518
2022/03/15 02:57:00.000,n,249,2.16,1.44,2.88,19.2,71.2,1016.72,0,0,0,0,0.020866
2022/03/15 02:58:00.000,n,287,2.16,1.8,2.88,19.2,71.2,1016.72,0,0,0,0,0.016518
2022/03/15 02:59:00.011,n,231,1.08,0.72,1.44,19.2,71.2,1016.72,0,0,0,0,0.025253
2022/03/15 03:00:00.007,n,341,1.8,1.44,2.16,19.2,71.4,1016.72,0,0,0,0,0.032234
2022/03/15 03:01:00.000,n,315,1.8,1.44,2.52,19.2,71.5,1016.72,0,0,0,0,0.029602
2022/03/15 03:02:00.001,n,227,2.52,2.16,2.88,19.2,71.3,1016.72,0,0,0,0,0.027008
2022/03/15 03:03:00.000,n,315,1.8,1.44,1.8,19.2,71.3,1016.72,0,0,0,0,0.027008
2022/03/15 03:04:00.000,n,252,5.04,3.6,5.76,19.2,71.4,1016.72,0,0,0,0,0.028725
2022/03/15 03:05:00.000,n,272,5.4,3.6,6.84,19.2,71.4,1016.72,0,0,0,0,0.032234
2022/03/15 03:06:00.006,n,262,5.76,5.04,6.84,19.2,71.3,1016.72,0,0,0,0,0.031357
2022/03/15 03:07:00.003,n,275,5.4,4.68,6.48,19.2,71.4,1016.72,0,0,0,0,0.029602
2022/03/15 03:08:00.000,n,248,5.04,2.88,7.2,19.2,71.4,1016.72,0,0,0,0,0.028725
2022/03/15 03:09:00.014,n,270,2.88,2.52,3.24,19.2,71.4,1016.72,0,0,0,0,0.028725
2022/03/15 03:10:00.000,n,276,5.4,4.68,6.12,19.2,71.3,1016.72,0,0,0,0,0.029602
2022/03/15 03:11:00.000,n,257,3.6,2.16,4.32,19.1,71.3,1016.72,0,0,0,0,0.032234
2022/03/15 03:12:00.000,n,256,3.24,2.52,3.96,19.1,71.4,1016.72,0,0,0,0,0.031357
2022/03/15 03:13:00.002,n,280,3.24,2.52,3.6,19.1,71.5,1016.62,0,0,0,0,0.033073
2022/03/15 03:14:00.000,n,260,3.24,2.88,3.6,19.1,71.5,1016.62,0,0,0,0,0.031357
2022/03/15 03:15:00.000,n,264,5.04,4.32,5.4,19.1,71.5,1016.62,0,0,0,0,0.033951
2022/03/15 03:16:00.010,n,235,2.88,2.52,2.88,19.1,71.6,1016.72,0,0,0,0,0.029602
2022/03/15 03:17:00.007,n,262,1.08,0.36,1.8,19.1,71.6,1016.72,0,0,0,0,0.030479
2022/03/15 03:18:00.005,n,279,2.52,1.8,3.24,19.1,71.7,1016.72,0,0,0,0,0.028725
2022/03/15 03:19:00.002,n,296,1.08,0.72,1.8,19.1,71.8,1016.72,0,0,0,0,0.031357
2022/03/15 03:20:00.000,n,281,3.6,3.6,4.32,19,71.9,1016.72,0,0,0,0,0.030479
2022/03/15 03:21:00.000,n,318,1.44,1.08,2.16,19,72.1,1016.62,0,0,0,0,0.028725
2022/03/15 03:22:00.000,n,271,4.32,3.96,4.68,19,72,1016.62,0,0,0,0,0.027008
2022/03/15 03:23:00.006,n,264,2.88,2.16,3.24,19,72,1016.72,0,0,0,0,0.029602
2022/03/15 03:24:00.003,n,279,2.16,1.8,2.16,19,72,1016.72,0,0,0,0,0.030479
2022/03/15 03:25:00.000,n,259,6.12,5.4,6.84,19,72,1016.72,0,0,0,0,0.030479
2022/03/15 03:26:00.013,n,260,4.68,3.24,6.84,19,72,1016.72,0,0,0,0,0.026131
2022/03/15 03:27:00.011,n,260,7.2,6.12,7.92,19,72,1016.72,0,0,0,0,0.028725
2022/03/15 03:28:00.000,n,279,7.92,7.2,7.92,19,72,1016.62,0,0,0,0,0.028725
2022/03/15 03:29:00.000,n,252,5.04,4.68,5.04,19,72.1,1016.62,0,0,0,0,0.027008
2022/03/15 03:30:00.002,n,260,6.12,3.6,8.28,19,72,1016.62,0,0,0,0,0.030479
2022/03/15 03:31:00.000,n,248,3.24,2.88,3.6,19,72.1,1016.72,0,0,0,0,0.027008
2022/03/15 03:32:00.000,n,291,3.24,2.88,3.6,19,72.5,1016.72,0,0,0,0,0.027008
2022/03/15 03:33:00.009,n,255,1.44,1.44,1.8,19,72.2,1016.72,0,0,0,0,0.027008
2022/03/15 03:34:00.006,n,237,2.16,1.44,3.24,19,72.3,1016.72,0,0,0,0,0.027847
2022/03/15 03:35:00.003,n,273,2.88,2.16,3.24,19,72.3,1016.72,0,0,0,0,0.026131
2022/03/15 03:36:00.000,n,250,2.88,2.16,3.6,18.9,72.3,1016.72,0,0,0,0,0.029602
2022/03/15 03:37:00.000,n,259,3.6,2.52,4.32,18.9,72.2,1016.72,0,0,0,0,0.025253
2022/03/15 03:38:00.000,n,262,3.6,2.88,4.68,18.9,72.2,1016.72,0,0,0,0,0.029602
2022/03/15 03:39:00.000,n,272,4.32,2.88,5.04,18.9,72.3,1016.72,0,0,0,0,0.029602
2022/03/15 03:40:00.000,n,262,2.16,1.8,2.52,18.9,72.3,1016.72,0,0,0,0,0.029602
2022/03/15 03:41:00.004,n,209,2.88,1.8,3.6,18.9,72.3,1016.72,0,0,0,0,0.028725
2022/03/15 03:42:00.001,n,269,4.68,4.32,5.04,18.9,72.3,1016.62,0,0,0,0,0.029602
2022/03/15 03:43:00.000,n,268,5.76,5.76,6.12,18.9,72.4,1016.72,0,0,0,0,0.025253
2022/03/15 03:44:00.012,n,263,3.6,3.24,3.96,18.9,72.4,1016.72,0,0,0,0,0.030479
2022/03/15 03:45:00.009,n,267,3.96,2.52,4.68,18.9,72.4,1016.72,0,0,0,0,0.028725
2022/03/15 03:46:00.000,n,327,0.72,0.36,1.44,18.9,72.4,1016.72,0,0,0,0,0.026131
2022/03/15 03:47:00.003,n,251,5.04,4.68,5.76,18.9,72.4,1016.72,0,0,0,0,0.027008
2022/03/15 03:48:00.000,n,256,6.12,5.4,6.84,18.9,72.3,1016.72,0,0,0,0,0.029602
2022/03/15 03:49:00.000,n,262,5.04,4.68,5.76,18.9,72.3,1016.72,0,0,0,0,0.029602
2022/03/15 03:50:00.000,n,273,4.68,4.32,5.04,19,72.5,1016.72,0,0,0,0,0.027847
2022/03/15 03:51:00.008,n,271,1.44,1.08,1.8,19,72.3,1016.72,0,0,0,0,0.027008
2022/03/15 03:52:00.005,n,261,8.28,7.56,9.36,19,72.1,1016.72,0,0,0,0,0.029602
2022/03/15 03:53:00.002,n,234,3.96,3.24,4.32,19,72.1,1016.72,0,0,0,0,0.029602
2022/03/15 03:54:00.000,n,250,6.84,5.76,7.2,19,72,1016.72,0,0,0,0,0.030479
2022/03/15 03:55:00.000,n,271,5.76,5.04,6.84,19.1,71.9,1016.72,0,0,0,0,0.029602
2022/03/15 03:56:00.000,n,268,6.12,5.04,6.48,19.1,71.9,1016.72,0,0,0,0,0.031357
2022/03/15 03:57:00.000,n,274,5.4,5.04,5.76,19.1,71.6,1016.72,0,0,0,0,0.033951
2022/03/15 03:58:00.005,n,263,3.24,2.52,3.96,19.1,71.6,1016.72,0,0,0,0,0.029602
2022/03/15 03:59:00.002,n,268,3.6,1.44,7.2,19.2,71.4,1016.72,0,0,0,0,0.031357
2022/03/15 04:00:00.000,n,247,2.88,1.8,4.32,19.2,71.4,1016.72,0,0,0,0,0.033073
2022/03/15 04:01:00.012,n,259,4.68,4.32,5.04,19.2,71.3,1016.72,0,0,0,0,0.033951
2022/03/15 04:02:00.009,n,277,0.72,0.36,1.8,19.2,71.4,1016.72,0,0,0,0,0.032234
2022/03/15 04:03:00.006,n,253,5.76,5.4,6.12,19.3,71.2,1016.72,0,0,0,0,0.034828
2022/03/15 04:04:00.000,n,264,5.04,3.6,6.12,19.3,71.1,1016.72,0,0,0,0,0.035706
2022/03/15 04:05:00.000,n,266,1.8,1.08,2.88,19.3,71.1,1016.72,0,0,0,0,0.034828
2022/03/15 04:06:00.000,n,295,1.8,1.08,2.16,19.3,71,1016.72,0,0,0,0,0.033073
2022/03/15 04:07:00.000,n,296,2.88,1.44,3.96,19.3,70.9,1016.72,0,0,0,0,0.033951
2022/03/15 04:08:00.007,n,259,3.24,2.88,3.6,19.4,70.9,1016.72,0,0,0,0,0.035706
2022/03/15 04:09:00.005,n,322,0.72,0.72,1.44,19.4,70.8,1016.72,0,0,0,0,0.0383
2022/03/15 04:10:00.002,n,268,1.8,1.44,2.52,19.4,70.7,1016.72,0,0,0,0,0.036583
2022/03/15 04:11:00.000,n,256,2.16,1.44,2.88,19.4,70.8,1016.72,0,0,0,0,0.034828
2022/03/15 04:12:00.011,n,254,2.16,1.44,2.52,19.5,70.7,1016.72,0,0,0,0,0.0383
2022/03/15 04:13:00.000,n,273,4.68,3.96,5.04,19.5,70.7,1016.72,0,0,0,0,0.0383
2022/03/15 04:14:00.000,n,143,1.44,0.72,2.52,19.5,70.6,1016.72,0,0,0,0,0.040932
2022/03/15 04:15:00.004,n,267,4.68,4.32,5.4,19.5,70.7,1016.72,0,0,0,0,0.040016
2022/03/15 04:16:00.001,n,105,2.52,1.8,3.6,19.5,70.7,1016.82,0,0,0,0,0.040016
2022/03/15 04:17:00.000,n,295,2.16,1.44,3.24,19.5,70.6,1016.72,0,0,0,0,0.042648
2022/03/15 04:18:00.000,n,21,1.08,0.36,1.8,19.6,70.7,1016.72,0,0,0,0,0.042648
2022/03/15 04:19:00.008,n,249,0.72,0.36,0.72,19.6,70.5,1016.72,0,0,0,0,0.043526
2022/03/15 04:20:00.005,n,241,2.16,2.16,2.52,19.6,70.6,1016.72,0,0,0,0,0.040932
2022/03/15 04:21:00.003,n,156,0.36,0,0.72,19.6,70.6,1016.72,0,0,0,0,0.043526
2022/03/15 04:22:00.001,n,241,1.8,0.72,2.52,19.7,70.5,1016.72,0,0,0,0,0.046997
2022/03/15 04:23:00.000,n,270,2.88,1.8,3.24,19.7,70.5,1016.72,0,0,0,0,0.045242
2022/03/15 04:24:00.000,n,311,2.88,2.52,3.6,19.7,70.4,1016.72,0,0,0,0,0.048752
2022/03/15 04:25:00.000,n,251,5.04,4.32,5.76,19.7,70.5,1016.72,0,0,0,0,0.047874
2022/03/15 04:26:00.005,n,249,3.24,2.88,3.6,19.7,70.5,1016.72,0,0,0,0,0.045242
2022/03/15 04:27:00.003,n,230,3.6,2.16,5.4,19.7,70.6,1016.72,0,0,0,0,0.047874
2022/03/15 04:28:00.000,n,264,3.24,2.88,3.6,19.7,70.5,1016.72,0,0,0,0,0.047874
2022/03/15 04:29:00.012,n,240,4.68,3.96,5.4,19.7,70.6,1016.72,0,0,0,0,0.045242
2022/03/15 04:30:00.010,n,243,3.96,2.88,4.32,19.7,70.6,1016.72,0,0,0,0,0.048752
2022/03/15 04:31:00.000,n,256,1.08,0.36,1.44,19.7,70.7,1016.72,0,0,0,0,0.024338
2022/03/15 04:32:00.002,n,351,2.16,1.44,4.68,19.7,70.8,1016.72,0,0,0,0,0.028687
2022/03/15 04:33:00.000,n,181,1.8,0.36,4.68,19.7,70.9,1016.72,0,0,0,0,0.031319
2022/03/15 04:34:00.000,n,275,5.76,2.52,7.56,19.7,70.5,1016.72,0,0,0,0,0.031319
2022/03/15 04:35:00.000,n,272,4.68,3.96,5.4,19.7,70.5,1016.72,0,0,0,0,0.028687
2022/03/15 04:36:00.007,n,275,2.52,1.8,3.24,19.7,70.6,1016.72,0,0,0,0,0.032158
2022/03/15 04:37:00.005,n,278,3.6,2.16,5.04,19.7,70.4,1016.72,0,0,0,0,0.031319
2022/03/15 04:38:00.001,n,247,3.96,3.24,5.04,19.7,70.3,1016.72,0,0,0,0,0.030441
2022/03/15 04:39:00.015,n,268,4.68,3.96,5.04,19.7,70.3,1016.72,0,0,0,0,0.033035
2022/03/15 04:40:00.000,n,244,4.32,3.24,5.4,19.7,70.2,1016.62,0,0,0,0,0.033913
2022/03/15 04:41:00.000,n,286,5.04,4.32,5.4,19.7,70.2,1016.62,0,0,0,0,0.030441
2022/03/15 04:42:00.000,n,243,5.4,5.4,5.76,19.6,70.1,1016.62,0,0,0,0,0.033035
2022/03/15 04:43:00.006,n,249,7.2,6.12,7.92,19.6,70.2,1016.62,0,0,0,0,0.035667
2022/03/15 04:44:00.003,n,264,5.76,4.68,6.48,19.6,70.2,1016.62,0,0,0,0,0.033913
2022/03/15 04:45:00.001,n,232,4.32,3.6,5.04,19.6,70.2,1016.62,0,0,0,0,0.03479
2022/03/15 04:46:00.000,n,242,2.16,1.44,2.88,19.6,70.1,1016.72,0,0,0,0,0.033913
2022/03/15 04:47:00.012,n,247,1.8,1.08,2.16,19.6,70.2,1016.62,0,0,0,0,0.033913
2022/03/15 04:48:00.010,n,98,1.44,1.08,1.8,19.6,70.3,1016.62,0,0,0,0,0.03479
2022/03/15 04:49:00.000,n,279,2.16,1.8,2.52,19.6,70.3,1016.62,0,0,0,0,0.03479
2022/03/15 04:50:00.000,n,283,2.88,2.16,3.6,19.6,70.4,1016.62,0,0,0,0,0.035667
2022/03/15 04:51:00.001,n,232,0.72,0.36,1.44,19.6,70.7,1016.62,0,0,0,0,0.031319
2022/03/15 04:52:00.000,n,227,0.72,0.36,1.44,19.6,70.6,1016.62,0,0,0,0,0.033035
2022/03/15 04:53:00.000,n,293,2.16,1.44,3.24,19.6,70.7,1016.62,0,0,0,0,0.036545
2022/03/15 04:54:00.009,n,277,1.8,1.44,2.52,19.5,70.7,1016.62,0,0,0,0,0.035667
2022/03/15 04:55:00.007,n,218,1.44,0.72,2.16,19.5,70.8,1016.62,0,0,0,0,0.035667
2022/03/15 04:56:00.004,n,178,0.36,0,1.08,19.5,71.1,1016.62,0,0,0,0,0.033035